Corona, CA

2:58 PM PST on January 16, 2018 (GMT -0800)
Corona Municipal

Weather History for KAJO - April, 2014

Change the Weather History Date:

Monday, April 21, 2014

  Actual Average (KCNO) Record (KCNO)
Temperature  
Mean Temperature 68 °F -  
Max Temperature 84 °F 72 °F 100 °F (2009)
Min Temperature 52 °F 43 °F 42 °F (2002)
Cooling Degree Days 3    
Growing Degree Days 18 (Base 50)    
Moisture  
Dew Point 53 °F    
Average Humidity 73    
Maximum Humidity 100    
Minimum Humidity 32    
Precipitation  
Precipitation 0.00 in - - ()
Sea Level Pressure  
Sea Level Pressure 30.00 in    
Wind  
Wind Speed 4 mph (West)    
Max Wind Speed 16 mph    
Max Gust Speed 23 mph    
Visibility 6 miles    
Events Fog    
Averages and records for this station are not official NWS values.
T = Trace of Precipitation, MM = Missing Value Source: NWS Daily Summary

Daily Weather History Graph

Daily Weather History Graph

Search for Another Location

Airport or City:

Trip Planner

Search our weather history database for the weather conditions in past years. The results will help you decide how hot, cold, wet, or windy it might be!

Date:

Astronomy

Apr. 21, 2014 Rise Set
Actual Time 6:12 AM PDT 7:26 PM PDT
Civil Twilight 5:46 AM PDT 7:52 PM PDT
Nautical Twilight 5:15 AM PDT 8:23 PM PDT
Astronomical Twilight 4:43 AM PDT 8:55 PM PDT
Moon 12:56 AM PDT (4/21) 11:47 AM PDT (4/21)
Length of Visible Light 14h 06m
Length of Day
13h 14m
Waning Gibbous, 56% of the Moon is Illuminated
Apr 21
Waning Gibbous
Apr 22
Last Quarter
Apr 28
New
May 6
First Quarter
May 14
Full

Hourly Weather History & Observations

Time (PDT) Temp. Heat Index Dew Point Humidity Pressure Visibility Wind Dir Wind Speed Gust Speed Precip Events Conditions
12:56 AM 54.0 °F - 50.0 °F 86% 30.05 in 10.0 mi Calm Calm - N/A   Clear
1:56 AM 52.0 °F - 48.9 °F 89% 30.03 in 10.0 mi Calm Calm - N/A   Clear
2:56 AM 55.9 °F - 52.9 °F 89% 30.02 in 10.0 mi Calm Calm - N/A   Clear
3:56 AM 52.0 °F - 48.9 °F 89% 30.01 in 9.0 mi Calm Calm - N/A   Clear
4:56 AM 52.9 °F - 52.0 °F 97% 30.02 in 9.0 mi Calm Calm - N/A   Clear
5:28 AM 55.4 °F - 53.6 °F 94% 30.04 in 2.5 mi WSW 5.8 mph - N/A   Scattered Clouds
5:32 AM 55.4 °F - 55.4 °F 100% 30.04 in 1.2 mi WSW 5.8 mph - N/A   Mostly Cloudy
5:35 AM 55.4 °F - 55.4 °F 100% 30.04 in 0.8 mi WSW 6.9 mph - N/A   Mostly Cloudy
5:45 AM 55.4 °F - 55.4 °F 100% 30.04 in 0.5 mi West 5.8 mph - N/A Fog Fog
5:56 AM 54.9 °F - 54.9 °F 100% 30.02 in 0.5 mi Calm Calm - N/A Fog Fog
6:17 AM 55.4 °F - 55.4 °F 100% 30.04 in 0.2 mi West 5.8 mph - N/A Fog Fog
6:30 AM 55.4 °F - 55.4 °F 100% 30.05 in 0.5 mi WSW 4.6 mph - N/A Fog Fog
6:40 AM 55.4 °F - 55.4 °F 100% 30.05 in 0.2 mi WSW 5.8 mph - N/A Fog Fog
6:56 AM 55.9 °F - 55.9 °F 100% 30.04 in 1.0 mi WSW 3.5 mph - N/A   Overcast
7:05 AM 55.4 °F - 55.4 °F 100% 30.05 in 1.5 mi Calm Calm - N/A   Overcast
7:19 AM 55.4 °F - 55.4 °F 100% 30.05 in 2.5 mi Calm Calm - N/A   Scattered Clouds
7:27 AM 57.2 °F - 57.2 °F 100% 30.05 in 3.0 mi Calm Calm - N/A   Partly Cloudy
7:56 AM 61.9 °F - 54.9 °F 78% 30.04 in 7.0 mi Calm Calm - N/A   Clear
8:56 AM 63.0 °F - 55.9 °F 78% 30.05 in 9.0 mi Variable 3.5 mph - N/A   Clear
9:56 AM 68.9 °F - 54.9 °F 61% 30.04 in 10.0 mi Calm Calm - N/A   Clear
10:56 AM 75.9 °F - 52.9 °F 45% 30.03 in 10.0 mi Calm Calm - N/A   Clear
11:56 AM 79.9 °F - 48.9 °F 34% 30.01 in 10.0 mi Calm Calm - N/A   Clear
12:56 PM 84.9 °F - 52.0 °F 32% 29.99 in 10.0 mi West 8.1 mph - N/A   Clear
1:56 PM 83.8 °F 82.6 °F 54.0 °F 36% 29.97 in 10.0 mi West 15.0 mph 23.0 mph N/A   Clear
2:56 PM 82.9 °F - 52.9 °F 35% 29.95 in 10.0 mi West 15.0 mph - N/A   Clear
3:56 PM 83.8 °F - 52.0 °F 33% 29.93 in 10.0 mi West 12.7 mph - N/A   Clear
4:56 PM 82.9 °F - 50.9 °F 33% 29.91 in 10.0 mi West 16.1 mph - N/A   Clear
5:56 PM 79.0 °F - 50.9 °F 37% 29.92 in 10.0 mi NW 11.5 mph - N/A   Clear
6:35 PM 75.2 °F - 51.8 °F 44% 29.93 in 1.8 mi WNW 12.7 mph 19.6 mph N/A   Haze
6:45 PM 73.4 °F - 53.6 °F 50% 29.93 in 3.0 mi WNW 12.7 mph - N/A   Haze
6:56 PM 73.9 °F - 52.9 °F 48% 29.92 in 10.0 mi WNW 11.5 mph - N/A   Clear
7:56 PM 70.0 °F - 52.0 °F 53% 29.92 in 10.0 mi West 11.5 mph - N/A   Clear
8:56 PM 65.8 °F - 48.9 °F 54% 29.95 in 10.0 mi WSW 15.0 mph 18.4 mph N/A   Clear
9:56 PM 61.9 °F - 54.0 °F 75% 29.97 in 10.0 mi West 9.2 mph - N/A   Clear
10:56 PM 59.9 °F - 54.9 °F 83% 29.97 in 10.0 mi Variable 5.8 mph - N/A   Clear
11:56 PM 59.0 °F - 55.9 °F 90% 29.97 in 10.0 mi West 6.9 mph - N/A   Clear